User: anonymous   Login
Location: Walnut Point State Park
(39.6958°N, 88.0345°W)
Time: 02:39:01
(UTC-06:00)
Language:

ATLAS 3B R/B - Orbit

View from above orbital plane
View from above orbital plane
View from above satellite
View from above satellite

Ground track
Ground track

The orbit data is extracted from the following two-line orbital elements,

1 28538U 05004B   18046.84974937 0.00000060  00000-0  10068-3 0    02
2 28538  63.8258  42.3596 0117000 153.9865 206.0135 13.43109009    02
Epoch (UTC): 15 February 2018 20:23:38
Eccentricity: 0.0117000
inclination: 63.8258°
perigee height: 1010 km
apogee height: 1185 km
right ascension of ascending node: 42.3596°
argument of perigee: 153.9865°
revolutions per day: 13.43109009
mean anomaly at epoch: 206.0135°
orbit number at epoch: 0

The dashed part of the orbit path shows where the satellite is in the earth's shadow,  

DLR